Location: Ajisawe
(8.4333°N, 4.3833°E)
Time: 13:35:02
(UTC+00:00)

Courier 1B Rocket - Pass Details

Date: 25 April 2021
Orbit: 920 x 1202 km, 28.2° (Epoch: 07 May)

Event Time Altitude Azimuth Distance (km) Brightness Sun altitude
Rises 19:28:17 0° 312° (NW) 3,629 9.1 -23.7°
Reaches altitude 10° 19:32:33 10° 339° (NNW) 2,737 7.8 -24.7°
Maximum altitude 19:35:36 13° 7° (N) 2,539 7.3 -25.4°
Drops below altitude 10° 19:38:44 10° 34° (NE) 2,830 7.3 -26.2°
Enters shadow 19:39:06 - 37° (NE) 2,889 7.3 -26.2°
Sets 19:43:19 0° 60° (ENE) 3,857 - -27.2°
